Regional Weather Roundup
Issued by NWS

Home | Current Version | Previous Version | Graphics & Text | Print | Product List | Glossary On
Versions: 1 2 3 4 5 6 7 8 9 10 11 12 13 14 15 16 17 18 19 20 21 22 23 24 25 26 27 28 29 30 31 32 33 34 35 36 37 38 39 40 41 42 43 44 45 46 47 48 49 50
661
ASUS43 KDMX 200006
RWRIA

WEATHER ROUNDUP FOR IOWA
NATIONAL WEATHER SERVICE DES MOINES IA
600 PM CST SUN NOV 19 2017

NOTE: "FAIR" INDICATES FEW OR NO CLOUDS BELOW 12,000 FEET WITH NO
SIGNIFICANT WEATHER AND/OR OBSTRUCTIONS TO VISIBILITY.

* - THESE STATIONS ARE NOT NWS STATIONS...THUS NOT UNDER NWS
QUALITY CONTROL.  THEY ALSO DO NOT REPORT WEATHER SUCH
AS PRECIPITATION OR FOG.

IAZ001>003-012>014-020>022-031>034-043>046-200100-
   NORTHWEST IOWA

CITY           SKY/WX    TMP DP  RH WIND       PRES   REMARKS
CARROLL *      CLOUDY    37  27  65 S8        29.97R WCI  31
CHEROKEE *     CLOUDY    41  29  63 S7        29.92F
DENISON *      CLOUDY    43  28  56 S5        29.96F
LE MARS *      PTCLDY    43  27  52 S6        29.90F
ORANGE CITY *  CLOUDY    43  27  52 S3        29.89F
SHELDON *      CLOUDY    41  27  56 S6        29.88F
SIOUX CITY     CLOUDY    44  25  47 SW6       29.92F
6HR MIN TEMP:  43; 6HR MAX TEMP:  55;

SPENCER        CLOUDY    36  26  67 S7        29.91F WCI  30
6HR MIN TEMP:  35; 6HR MAX TEMP:  50;

STORM LAKE *   CLOUDY    39  27  60 S10       29.92F WCI  32
$$

IAZ055>058-069>071-079>083-090>094-200100-
   SOUTHWEST IOWA

CITY           SKY/WX    TMP DP  RH WIND       PRES   REMARKS
ATLANTIC *     CLEAR     37  30  75 S8        29.98F WCI  31
AUDUBON *      CLOUDY    41  30  65 S7        29.98S
CLARINDA *       N/A     41  28  60 S8        30.03
COUNCIL BLFS * CLEAR     48  27  43 SW10      29.97F
CRESTON *      CLEAR     37  28  70 S13       30.01F WCI  29
HARLAN  *      CLOUDY    41  30  65 SW8       30.00S
LAMONI         CLEAR     40  27  59 S9        30.04F WCI  34
6HR MIN TEMP:  40; 6HR MAX TEMP:  47;

RED OAK *      CLEAR     43  28  56 S7        30.00S
SHENANDOAH *   CLEAR     45  27  49 S10       30.01S
$$

IAZ047>049-059>061-072>074-084-200100-
   CENTRAL IOWA

CITY           SKY/WX    TMP DP  RH WIND       PRES   REMARKS
AMES           CLOUDY    38  29  70 S9        29.99F WCI  31
6HR MIN TEMP:  37; 6HR MAX TEMP:  47;

ANKENY *       CLOUDY    41  27  56 S6        30.02F
BOONE *        CLOUDY    39  28  65 S7        29.98S WCI  34
CHARITON *     CLEAR     37  27  65 S10       30.03F WCI  30
DES MOINES     CLOUDY    41  26  55 S9        30.01F
6HR MIN TEMP:  41; 6HR MAX TEMP:  48;

GRINNELL*      CLEAR     36  26  67 S10       30.04F WCI  29
KNOXVILLE *    CLOUDY    39  23  52 S7        30.03F WCI  34
MARSHALLTOWN   CLOUDY    36  26  67 S8        30.00F WCI  30
6HR MIN TEMP:  35; 6HR MAX TEMP:  43;

NEWTON *       CLOUDY    36  27  69 S9        30.02F WCI  29
PELLA *        CLOUDY    37  26  64 S7        30.06S WCI  31
PERRY *          N/A     35  27  70 S8        29.99S WCI  29
$$

IAZ004>006-015-016-023>025-035-036-200100-
   NORTH CENTRAL IOWA

CITY           SKY/WX    TMP DP  RH WIND       PRES   REMARKS
ALGONA *       CLOUDY    37  28  70 SW10      29.93F WCI  30
CLARION *      CLOUDY    34  30  86 S9        29.96S WCI  26
ESTHERVILLE    CLOUDY    37  25  61 S12       29.91F WCI  29
6HR MIN TEMP:  36; 6HR MAX TEMP:  48;

FORT DODGE *   CLOUDY    42  28  57 S12       29.96S
MASON CITY     CLOUDY    35  26  69 S9        29.96S WCI  28
6HR MIN TEMP:  31; 6HR MAX TEMP:  43;

FOREST CITY *    N/A     36  30  80 S8        29.93S WCI  29
WEBSTER CITY * CLOUDY    34  25  69 S12       29.96R WCI  25
IOWA FALLS *     N/A     35  28  76 S12       29.99S WCI  27
$$

IAZ007>011-017>019-026>030-037>042-050>054-066-200100-
   NORTHEAST IOWA

CITY           SKY/WX    TMP DP  RH WIND       PRES   REMARKS
CEDAR RAPIDS   CLEAR     31  22  69 S7        30.04S WCI  24
6HR MIN TEMP:  31; 6HR MAX TEMP:  40;

CHARLES CITY * CLEAR     34  25  69 S8        29.97S WCI  27
CLINTON *      CLEAR     26  22  84 SW10      30.08S WCI  16
DECORAH *      CLEAR     32  23  69 S7G13     29.96S WCI  26
DUBUQUE        CLEAR     29  21  72 SW13      30.01F WCI  19
6HR MIN TEMP:  28; 6HR MAX TEMP:  33;

MONTICELLO *   CLEAR     30  23  74 S8        30.03F WCI  23
OELWEIN *      CLEAR     34  27  75 S10       30.00F WCI  26
WATERLOO       CLEAR     33  24  69 S8        30.00S WCI  26
6HR MIN TEMP:  33; 6HR MAX TEMP:  41;

$$

IAZ064-065-067-068-078-200100-
   EAST CENTRAL IOWA

CITY           SKY/WX    TMP DP  RH WIND       PRES   REMARKS
DAVENPORT      CLEAR     31  20  63 S8        30.10S WCI  23
6HR MIN TEMP:  30; 6HR MAX TEMP:  36;

IOWA CITY      CLEAR     34  22  61 S6        30.08F WCI  29
6HR MIN TEMP:  34; 6HR MAX TEMP:  41;

MT. PLEASANT * CLEAR     33  24  69 S9        30.10F WCI  26
MUSCATINE *    CLEAR     34  23  64 S8        30.09F WCI  27
QUAD CITIES    CLEAR     32  20  61 S5        30.08F WCI  27
6HR MIN TEMP:  32; 6HR MAX TEMP:  38;

$$

IAZ062-063-075>077-085>089-095>099-200100-
   SOUTHEAST IOWA

CITY           SKY/WX    TMP DP  RH WIND       PRES   REMARKS
BURLINGTON     CLEAR     32  23  69 S7        30.10F WCI  26
6HR MIN TEMP:  32; 6HR MAX TEMP:  39;

FAIRFIELD *    CLEAR     36  23  60 S8        30.08S WCI  29
FORT MADISON * CLEAR     34  25  69 S6        30.11F WCI  29
KEOKUK *       CLEAR     36  23  60 S6        30.11F WCI  31
OSKALOOSA *      N/A     32  26  78 S8        30.07S WCI  24
OTTUMWA        CLEAR     34  24  67 S8        30.07S WCI  27
6HR MIN TEMP:  34; 6HR MAX TEMP:  45;

WASHINGTON *   CLEAR     32  25  74 S9        30.08F WCI  24
$$

ABBREVIATIONS USED IN REMARKS
   TC - TEMPERATURES IN CELSIUS
  WCI - WIND CHILL INDEX
   HX - HEAT INDEX
  VSB - VISIBILITY
$$





USA.gov is the U.S. government's official web portal to all federal, state and local government web resources and services.